Theta_e
292 293 293 293 293 293 294 294 294 295 295 295 295 296 296 296 297 297 298 299 299 299 298 298 298 298 298 298 298 298 298 298 297 297 297 297 296 296 296 295 296 296
291 291 291 292 292 292 292 292 293 293 293 293 293 294 294 295 295 296 296 297 298 298 298 298 297 297 297 297 297 297 297 297 297 297 296 296 296 296 295 295 295 296
290 290 290 290 290 290 290 291 291 291 291 292 292 293 293 293 293 294 295 295 296 296 297 297 297 296 296 296 297 297 297 297 296 296 296 296 296 296 295 295 295 295
288 289 289 289 289 289 289 289 289 289 289 290 291 291 292 292 292 292 293 293 294 295 295 295 295 296 296 296 296 296 296 296 296 296 296 296 295 295 295 295 295 295
287 287 287 288 288 288 288 288 288 288 288 288 289 289 290 291 291 292 292 292 292 293 293 294 294 295 295 295 295 295 295 295 296 295 295 295 295 295 294 294 294 294
287 287 286 286 286 286 286 286 286 286 287 287 287 287 288 288 289 290 291 291 291 292 292 292 293 294 294 294 294 295 295 295 295 295 295 295 295 294 294 294 294 294
288 287 287 286 286 286 286 286 286 285 285 286 286 286 286 287 287 288 289 290 290 291 291 291 292 292 293 293 294 294 294 294 294 294 294 294 294 294 294 294 293 293
288 288 287 287 286 286 286 286 285 285 285 285 285 285 285 285 286 286 286 287 288 289 290 290 291 291 291 292 293 293 293 294 294 294 294 294 294 293 293 293 293 293
288 288 287 287 287 286 286 286 286 286 285 285 285 285 284 284 285 285 285 285 285 286 287 289 290 290 291 291 291 292 292 293 293 293 293 293 293 293 293 293 292 292
287 287 287 287 287 287 286 286 286 286 286 285 285 284 284 284 284 284 284 284 284 285 285 286 287 288 289 290 291 291 291 291 292 292 292 292 292 292 292 292 292 292
286 286 286 286 286 286 286 286 285 285 286 285 285 285 284 284 284 284 284 284 284 284 284 284 285 286 287 288 289 290 290 290 291 291 291 291 291 291 291 292 292 291
285 285 285 285 285 285 285 285 284 284 284 284 285 285 285 284 284 284 284 284 284 284 284 284 285 285 285 286 287 288 290 290 290 290 290 290 290 291 291 291 291 291
285 285 285 284 284 284 284 284 284 284 283 283 284 284 284 284 284 283 283 283 283 284 284 284 284 285 285 285 285 286 287 288 289 290 290 290 290 290 290 290 290 290
285 285 284 284 284 284 284 284 284 284 283 283 283 283 283 284 283 283 283 283 283 283 283 284 284 284 284 284 285 285 286 287 287 288 289 289 289 289 289 290 290 290
285 285 285 285 284 284 284 284 284 284 283 283 283 283 283 283 283 283 282 282 282 282 282 283 283 284 284 284 285 285 285 285 286 287 288 288 288 289 289 289 289 289
284 284 284 284 284 284 284 284 284 284 283 283 283 282 282 282 282 282 282 282 282 282 282 282 282 283 284 284 285 285 285 285 285 286 286 287 287 288 288 288 289 289
284 284 283 283 283 283 283 283 283 283 283 283 283 282 282 282 282 282 282 281 281 281 281 281 281 282 283 284 284 285 285 285 285 285 286 286 287 287 287 288 288 288
283 283 283 283 283 283 283 282 282 282 282 282 282 282 281 281 281 281 281 281 280 280 280 280 281 281 282 283 284 285 285 285 285 285 285 286 286 287 287 287 287 288
283 283 283 282 282 282 282 282 282 282 282 281 281 281 280 280 280 280 280 280 280 279 279 279 280 280 281 282 283 283 284 285 285 285 285 285 286 286 286 287 287 287
282 282 282 282 282 281 281 281 281 281 281 281 281 280 279 279 279 279 279 279 279 278 278 278 279 279 280 281 282 282 284 285 285 285 285 285 285 285 286 286 286 287
281 281 281 281 280 280 280 280 280 280 280 280 280 279 279 278 278 278 278 278 278 277 277 277 277 278 279 280 281 282 284 284 284 285 285 285 285 285 285 285 286 286
280 279 279 279 279 279 279 279 279 279 279 279 278 278 278 277 277 277 277 277 277 276 276 276 276 276 277 279 280 282 283 283 284 284 284 284 284 284 284 284 285 285
277 277 277 277 277 277 277 277 277 277 277 277 277 276 276 276 276 275 276 276 275 275 275 275 275 275 276 277 278 280 281 281 282 283 283 283 283 283 283 283 284 284
275 275 275 275 275 275 275 275 274 274 274 274 274 274 274 274 274 274 274 274 274 274 274 274 274 274 275 276 277 278 279 279 280 281 282 283 283 283 283 283 283 284
272 272 273 273 273 272 272 271 271 271 271 271 272 272 272 272 273 273 273 273 273 273 273 273 273 273 273 274 275 276 277 278 278 279 280 281 281 282 282 283 283 283
269 270 270 270 269 269 268 268 268 268 268 269 269 269 270 270 271 271 271 271 271 271 271 272 272 272 272 273 274 275 275 276 276 277 278 279 280 281 282 282 283 283
Wind_Speed
24 23 23 23 22 22 21 19 17 16 16 15 15 15 16 16 15 14 13 13 13 13 14 15 17 18 19 20 22 25 26 28 31 31 31 33 35 37 37 38 36 35
23 23 22 23 23 22 22 20 19 19 18 17 16 15 15 16 16 15 14 13 13 14 15 16 17 18 19 20 21 23 25 27 29 31 31 32 33 36 38 38 38 37
24 23 22 22 22 21 21 21 20 21 20 19 17 17 17 16 16 16 15 15 14 15 16 17 18 18 19 19 20 22 24 25 28 29 31 32 32 33 36 37 39 40
23 23 22 21 21 22 21 21 21 22 22 21 19 18 18 17 16 16 16 16 15 16 16 17 17 18 19 19 20 22 23 25 26 28 30 32 32 32 34 35 37 39
22 23 22 22 22 23 23 23 23 23 23 23 21 20 19 18 18 17 17 17 17 17 17 17 17 17 18 19 19 21 22 24 26 27 30 31 32 32 33 33 35 37
20 21 22 22 22 23 23 24 24 24 24 24 24 23 23 21 20 19 18 17 17 18 18 18 18 18 18 18 19 20 21 23 25 27 29 30 31 31 32 32 33 35
17 18 19 20 20 21 22 22 23 23 24 25 25 25 25 25 23 22 20 19 18 18 18 18 19 19 19 19 20 21 22 23 25 26 28 29 30 31 32 32 33 34
13 15 16 18 18 19 20 21 21 21 21 23 23 23 23 24 24 23 23 22 21 20 19 18 18 18 19 19 20 22 23 24 25 26 27 28 29 30 31 31 32 34
13 14 14 16 16 17 18 19 20 20 21 21 22 22 22 22 22 22 23 23 23 23 21 20 19 17 17 18 19 21 22 24 25 26 27 28 28 29 30 30 31 33
14 15 15 16 16 16 16 18 19 20 20 21 22 23 23 24 24 23 23 23 23 23 22 21 21 19 18 17 18 20 22 23 24 25 27 28 29 29 29 30 31 32
17 18 19 20 19 19 18 20 21 21 21 23 24 25 25 25 25 25 25 25 24 23 23 22 21 20 20 19 18 18 20 22 24 25 27 28 28 29 30 30 31 32
21 22 23 24 24 23 22 24 26 25 24 25 26 27 27 28 27 26 26 26 26 26 25 24 22 20 20 20 19 18 19 20 22 24 26 27 28 29 29 30 31 32
23 25 26 27 27 26 26 28 28 28 28 28 27 27 28 29 29 28 27 27 27 27 27 26 25 23 22 21 20 20 19 20 21 23 25 27 28 28 29 30 31 32
25 26 28 30 30 30 31 32 31 31 31 31 30 29 30 30 30 29 29 29 28 28 28 27 26 26 26 25 23 22 21 22 22 23 25 26 27 28 29 29 30 31
26 27 29 30 31 33 34 35 36 36 35 34 33 32 32 32 32 31 31 30 30 30 29 28 27 28 28 27 25 24 23 24 24 25 26 28 29 29 29 30 30 30
27 28 30 31 32 33 34 35 37 38 38 38 37 35 34 33 33 33 32 31 32 32 31 30 30 30 29 28 26 26 26 27 27 28 28 29 30 31 31 31 31 31
27 28 30 31 32 32 33 35 36 37 38 39 39 38 37 34 33 33 33 32 32 32 32 32 33 32 31 29 27 27 28 28 28 30 30 30 31 31 32 32 32 32
28 29 30 31 31 32 33 34 35 35 36 38 38 39 38 37 36 36 36 35 33 33 34 34 34 35 33 30 29 29 30 29 30 31 31 32 32 31 32 33 32 32
29 30 30 31 31 32 33 33 33 34 35 36 36 36 36 37 38 39 39 39 37 35 35 36 36 36 36 34 33 33 31 31 32 33 33 33 33 33 33 33 32 32
30 30 31 31 32 32 32 32 32 33 34 34 34 34 34 35 37 38 40 41 41 39 39 39 39 40 38 35 35 36 33 31 33 34 35 34 34 34 34 34 34 33
29 29 30 32 33 33 33 32 32 32 32 33 32 32 33 34 35 37 39 41 42 42 41 42 45 46 40 33 33 34 33 33 34 35 35 36 36 36 36 36 36 35
29 30 31 33 34 34 33 32 32 32 33 33 32 33 34 35 36 38 39 41 42 42 42 44 48 51 47 38 34 33 33 34 35 35 36 36 37 38 37 37 37 36
30 31 33 34 34 33 33 32 33 34 34 34 33 34 36 36 37 38 39 40 41 42 42 43 47 52 51 45 39 36 35 35 35 36 37 38 39 40 39 38 38 38
30 31 33 34 33 32 32 33 34 35 35 35 35 36 38 38 38 39 40 40 41 42 43 42 46 51 51 47 44 41 39 38 37 36 36 37 39 40 40 39 39 40
30 31 31 31 32 33 33 35 36 36 36 36 36 36 38 40 39 39 40 41 41 42 43 43 46 50 50 47 46 44 42 40 37 35 36 38 39 40 41 40 39 40
29 29 30 31 33 35 37 37 37 36 36 37 37 37 38 39 39 39 40 42 43 43 44 45 46 49 50 47 46 46 45 43 41 39 38 39 40 40 39 39 39 40
Wind_Direction
42 40 38 38 38 34 29 23 16 7 360 353 345 337 331 324 317 317 320 315 301 290 290 291 289 284 278 273 268 261 257 255 252 251 249 245 242 240 239 239 238 237
39 38 37 37 36 34 31 28 24 17 8 2 354 344 335 328 322 316 314 315 308 299 296 295 292 288 283 278 273 267 263 259 256 254 252 250 247 244 242 241 241 241
35 34 34 34 33 31 30 30 28 24 18 14 9 360 350 341 333 325 316 309 305 300 298 296 293 290 286 281 277 272 267 264 261 259 256 254 252 248 245 244 244 244
32 31 31 31 31 29 28 28 26 23 20 19 18 12 4 355 346 338 329 319 311 305 301 298 295 292 289 284 279 275 271 267 265 262 259 257 256 254 251 248 246 246
31 29 28 28 28 26 24 24 22 18 16 15 15 14 10 6 0 353 344 334 325 318 311 306 301 296 293 289 283 279 274 271 269 266 262 260 259 257 255 253 250 249
25 24 25 25 26 24 22 21 18 15 13 10 9 9 7 6 6 3 356 347 337 328 322 317 311 304 299 295 289 284 279 275 272 269 265 263 261 259 257 255 254 252
14 13 15 17 19 20 19 18 15 13 11 7 5 4 2 1 1 1 0 356 349 342 334 327 320 314 309 303 296 289 283 278 274 270 266 265 265 263 259 256 254 254
5 5 5 6 8 10 9 9 8 6 5 3 1 1 359 357 356 355 355 354 352 350 346 339 330 322 315 309 301 293 286 279 275 271 268 267 265 264 262 260 257 254
358 358 356 355 356 357 358 358 356 354 354 353 352 352 352 353 352 352 351 350 349 348 346 343 339 331 322 313 304 297 291 285 279 274 271 269 267 265 264 262 260 257
357 355 352 349 347 345 347 348 347 344 342 341 342 343 345 347 347 347 347 346 345 344 342 339 338 336 330 321 310 301 296 292 287 281 276 273 270 268 266 263 261 259
352 350 347 346 344 339 337 338 339 339 336 333 334 335 336 339 341 341 340 339 338 337 335 333 331 329 326 324 318 308 298 292 289 285 281 278 275 272 269 266 263 261
345 343 341 341 340 336 332 330 332 333 332 330 330 329 328 330 333 334 332 331 331 330 329 328 324 320 317 315 313 309 301 293 288 285 283 282 280 277 273 269 266 264
340 338 336 336 336 333 327 325 326 326 326 326 326 324 322 322 324 325 324 324 324 324 324 323 320 316 312 309 307 304 300 295 290 287 284 283 281 279 275 272 269 267
333 331 330 330 330 328 325 323 323 321 321 322 322 320 318 316 317 317 316 316 316 317 318 317 315 312 310 309 307 304 301 298 294 291 289 286 283 280 276 274 273 270
325 323 323 322 322 321 320 320 319 318 317 316 315 315 314 312 312 311 310 309 310 311 311 311 309 307 306 306 305 304 303 300 296 293 291 288 285 284 280 276 274 272
316 316 316 315 314 314 314 314 313 313 312 311 310 310 310 309 308 307 305 303 305 306 305 304 303 302 302 301 299 299 299 298 296 293 290 287 284 283 282 279 277 275
308 308 309 307 307 307 306 306 307 307 306 305 306 306 307 307 306 303 300 300 300 300 299 298 298 298 297 295 292 292 292 292 292 291 288 285 281 279 278 278 277 276
302 302 302 301 300 300 300 300 300 299 298 298 299 301 303 305 304 301 299 298 297 295 294 293 293 294 293 289 285 286 287 285 285 287 286 283 279 276 275 275 275 275
301 299 298 297 297 296 296 296 295 293 293 293 293 295 298 299 300 299 298 297 296 294 292 291 290 289 288 285 283 283 282 280 280 282 283 280 277 275 273 272 271 271
301 299 298 298 298 297 296 294 292 291 290 290 290 291 293 295 296 296 296 295 294 293 293 292 289 288 285 283 283 282 279 276 277 279 278 277 276 275 273 272 270 268
304 302 301 301 301 300 298 295 293 292 292 291 290 289 290 291 291 292 291 291 291 291 292 291 289 289 287 282 279 279 277 275 276 275 273 272 273 273 273 272 271 268
307 306 305 305 303 302 299 297 296 296 295 294 292 289 288 288 287 287 287 286 286 287 288 288 288 288 288 285 281 279 276 276 274 272 271 270 270 271 271 271 270 268
309 309 308 306 304 302 300 299 299 298 297 297 295 292 289 287 286 285 284 282 282 283 283 284 285 286 286 285 284 281 279 278 275 272 270 268 268 268 268 268 268 265
309 309 307 305 304 303 303 302 302 300 299 298 296 293 290 288 287 285 283 280 279 279 279 280 281 282 283 284 283 282 280 278 276 273 271 269 268 268 266 265 265 265
309 308 306 305 305 305 305 304 302 301 299 297 295 292 290 289 287 285 282 280 278 277 278 278 278 279 280 281 281 281 280 278 276 274 272 270 269 268 267 265 263 263
310 309 306 305 304 304 303 302 301 300 299 297 295 293 291 288 287 285 283 281 280 279 278 276 276 277 278 278 279 279 278 277 276 273 270 268 267 266 265 264 261 260